Location: Lac Lasalle
(46.0398°N, 74.1576°W)
Time: 01:30:06
(UTC-05:00)

SEEDS - Pass Details

Date: 18 December 2019
Orbit: 586 x 603 km, 97.5° (Epoch: 27 January)

Event Time Altitude Azimuth Distance (km) Brightness Sun altitude
Rises 06:34:44 0° 4° (N) 2,860 ? -9.8°
Reaches altitude 10° 06:37:03 10° 355° (N) 1,954 ? -9.5°
Maximum altitude 06:40:52 34° 291° (WNW) 1,008 ? -8.9°
Drops below altitude 10° 06:44:41 10° 227° (SW) 1,946 ? -8.3°
Sets 06:46:59 0° 218° (SW) 2,845 ? -7.9°
